| time (UTC) | temp F | wind direction | speed knots | gust knots | rain 1hr in | rain 24hr in | rain mn in | humidity % | barometer mb |
| 20260504223100 | 77 | 153 | 6.1 | 20.0 | 0.00 | 0.00 | 0.00 | 71 | 1010.5 |
| 20260504221538 | 78 | 110 | 4.3 | 11.3 | 0.00 | 0.00 | 0.00 | 69 | 1010.7 |
| 20260504220106 | 78 | 197 | 7.0 | 13.9 | 0.00 | 0.00 | 0.00 | 68 | 1010.8 |
| 20260504214533 | 79 | 172 | 4.3 | 12.2 | 0.00 | 0.00 | 0.00 | 67 | 1010.8 |
| 20260504213005 | 79 | 148 | 5.2 | 11.3 | 0.00 | 0.00 | 0.00 | 65 | 1011.0 |
| 20260504211549 | 80 | 127 | 3.5 | 10.4 | 0.00 | 0.00 | 0.00 | 64 | 1011.3 |
| 20260504210020 | 80 | 159 | 5.2 | 10.4 | 0.00 | 0.00 | 0.00 | 63 | 1011.3 |
| 20260504204600 | 80 | 193 | 4.3 | 13.0 | 0.00 | 0.00 | 0.00 | 62 | 1011.5 |
| 20260504203035 | 80 | 160 | 4.3 | 15.6 | 0.00 | 0.00 | 0.00 | 62 | 1011.8 |
| 20260504201603 | 80 | 176 | 5.2 | 13.0 | 0.00 | 0.00 | 0.00 | 62 | 1012.0 |
| 20260504200033 | 80 | 127 | 3.5 | 9.6 | 0.00 | 0.00 | 0.00 | 62 | 1012.3 |
| 20260504194506 | 81 | 162 | 3.5 | 9.6 | 0.00 | 0.00 | 0.00 | 60 | 1012.4 |
| 20260504193048 | 80 | 123 | 4.3 | 10.4 | 0.00 | 0.00 | 0.00 | 60 | 1012.6 |
| 20260504191535 | 79 | 127 | 4.3 | 15.6 | 0.00 | 0.00 | 0.00 | 61 | 1012.8 |
| 20260504190106 | 80 | 253 | 4.3 | 13.0 | 0.00 | 0.00 | 0.00 | 61 | 1012.9 |
| 20260504184541 | 79 | 207 | 4.3 | 12.2 | 0.00 | 0.00 | 0.00 | 60 | 1013.1 |
| 20260504183011 | 79 | 137 | 5.2 | 17.4 | 0.00 | 0.00 | 0.00 | 61 | 1012.9 |
| 20260504181556 | 79 | 175 | 7.0 | 13.0 | 0.00 | 0.00 | 0.00 | 61 | 1013.3 |
| 20260504180021 | 79 | 199 | 6.1 | 13.9 | 0.00 | 0.00 | 0.00 | 60 | 1013.7 |
| 20260504174558 | 78 | 148 | 7.0 | 12.2 | 0.00 | 0.00 | 0.00 | 61 | 1013.9 |
| 20260504173033 | 77 | 159 | 5.2 | 11.3 | 0.00 | 0.00 | 0.00 | 62 | 1014.0 |
| 20260504171502 | 78 | 197 | 5.2 | 11.3 | 0.00 | 0.00 | 0.00 | 63 | 1014.3 |
| 20260504100122 | 66 | 146 | 1.7 | 6.1 | 0.00 | 0.00 | 0.00 | 68 | 1015.0 |
| 20260504081516 | 65 | 193 | 1.7 | 6.1 | 0.00 | 0.00 | 0.00 | 69 | 1015.7 |
| 20260504080114 | 65 | 198 | 0.9 | 4.3 | 0.00 | 0.00 | 0.00 | 69 | 1016.0 |
| 20260504050107 | 68 | 143 | 0.9 | 5.2 | 0.00 | 0.00 | 0.00 | 61 | 1017.6 |
| 20260504044546 | 67 | 172 | 0.0 | 0.0 | 0.00 | 0.00 | 0.00 | 62 | 1017.7 |
| 20260504043010 | 68 | 200 | 0.9 | 3.5 | 0.00 | 0.00 | 0.00 | 61 | 1017.7 |
| 20260504041552 | 69 | 212 | 0.9 | 5.2 | 0.00 | 0.00 | 0.00 | 60 | 1017.8 |
| 20260504040036 | 69 | 155 | 1.7 | 4.3 | 0.00 | 0.00 | 0.00 | 59 | 1017.8 |
| 20260504034600 | 69 | 139 | 0.9 | 7.8 | 0.00 | 0.00 | 0.00 | 59 | 1017.9 |
| 20260504033038 | 70 | 124 | 4.3 | 8.7 | 0.00 | 0.00 | 0.00 | 58 | 1017.8 |
| 20260504031513 | 70 | 162 | 2.6 | 8.7 | 0.00 | 0.00 | 0.00 | 59 | 1017.7 |
| 20260504030054 | 70 | 155 | 3.5 | 8.7 | 0.00 | 0.00 | 0.00 | 58 | 1017.5 |
| 20260504024527 | 70 | 117 | 5.2 | 11.3 | 0.00 | 0.00 | 0.00 | 58 | 1017.5 |
| 20260504023110 | 70 | 141 | 4.3 | 12.2 | 0.00 | 0.00 | 0.00 | 58 | 1017.7 |
| 20260504021540 | 71 | 153 | 4.3 | 10.4 | 0.00 | 0.00 | 0.00 | 58 | 1017.5 |
| 20260504020010 | 71 | 163 | 7.0 | 11.3 | 0.00 | 0.00 | 0.00 | 57 | 1017.5 |
| 20260504014607 | 71 | 150 | 4.3 | 9.6 | 0.00 | 0.00 | 0.00 | 56 | 1017.5 |
| 20260504013027 | 72 | 109 | 5.2 | 13.0 | 0.00 | 0.00 | 0.00 | 55 | 1017.3 |
| 20260504011609 | 72 | 144 | 4.3 | 10.4 | 0.00 | 0.00 | 0.00 | 53 | 1017.2 |
| 20260504010051 | 73 | 155 | 6.1 | 12.2 | 0.00 | 0.00 | 0.00 | 52 | 1017.1 |
| 20260504004514 | 73 | 175 | 4.3 | 9.6 | 0.00 | 0.00 | 0.00 | 52 | 1017.2 |
| 20260504003102 | 74 | 216 | 4.3 | 10.4 | 0.00 | 0.00 | 0.00 | 51 | 1017.1 |
| 20260504001531 | 74 | 129 | 4.3 | 10.4 | 0.00 | 0.00 | 0.00 | 50 | 1017.1 |
| 20260504000001 | 75 | 150 | 4.3 | 10.4 | 0.00 | 0.00 | 0.00 | 49 | 1017.3 |
| 20260503234540 | 76 | 184 | 6.1 | 11.3 | 0.00 | 0.00 | 0.00 | 47 | 1017.2 |
| 20260503233012 | 76 | 180 | 4.3 | 10.4 | 0.00 | 0.00 | 0.00 | 46 | 1017.4 |
| 20260503231553 | 77 | 152 | 4.3 | 8.7 | 0.00 | 0.00 | 0.00 | 43 | 1017.3 |
| 20260503230025 | 78 | 109 | 3.5 | 7.0 | 0.00 | 0.00 | 0.00 | 41 | 1017.4 |
| 20260503224609 | 77 | 152 | 3.5 | 6.1 | 0.00 | 0.00 | 0.00 | 41 | 1017.5 |